Location: Sternwarte ZA, Rosenfeld-Brittheim
(48.2889°N, 8.6789°E)
Time: 05:57:55
(UTC+02:00)

ISS - Pass Details

Date: 28 March 2020
Orbit: 417 x 423 km, 51.6° (Epoch: 29 March)

Event Time Altitude Azimuth Distance (km) Brightness Sun altitude
Rises 19:52:50 0° 281° (WNW) 2,360 2.2 -11.0°
Reaches altitude 10° 19:54:59 10° 288° (WNW) 1,497 0.6 -11.3°
Maximum altitude 19:58:14 45° 3° (N) 580 -3.0 -11.8°
Enters shadow 20:00:42 16° 73° (ENE) 1,196 -1.9 -12.2°
